Weather History for Staples, MN

Change the Weather History Date:

Saturday, September 28, 2013

  Actual Average Record
Temperature  
Mean Temperature 56 °F -  
Max Temperature 69 °F 59 °F 82 °F (2011)
Min Temperature 44 °F 38 °F 33 °F (2004)
Degree Days  
Heating Degree Days 8    
Growing Degree Days 6 (Base 50)    
Moisture  
Dew Point 51 °F    
Average Humidity 85    
Maximum Humidity 100    
Minimum Humidity 67    
Precipitation  
Precipitation 0.50 in - - ()
Sea Level Pressure  
Sea Level Pressure 29.72 in    
Wind  
Wind Speed 8 mph (SW)    
Max Wind Speed 20 mph    
Max Gust Speed 30 mph    
Visibility 10 miles    
Events Rain    
Averages and records for this station are not official NWS values.
T = Trace of Precipitation, MM = Missing Value Source: NWS Daily Summary

Daily Weather History Graph

Daily Weather History Graph

Search for Another Location

Airport:

Trip Planner

Search our weather history database for the weather conditions in past years. The results will help you decide how hot, cold, wet, or windy it might be!

Date:

Astronomy

Sep. 28, 2013 Rise Set
Actual Time 7:14 AM CDT 7:04 PM CDT
Civil Twilight 6:44 AM CDT 7:34 PM CDT
Nautical Twilight 6:09 AM CDT 8:09 PM CDT
Astronomical Twilight 5:33 AM CDT 8:44 PM CDT
Moon 12:44 AM CDT (9/28) 3:40 PM CDT (9/28)
Length of Visible Light 12h 50m
Length of Day
11h 50m
Waning Crescent, 36% of the Moon is Illuminated
Sep 28
Waning Crescent
Oct 4
New
Oct 11
First Quarter
Oct 18
Full
Oct 26
Last Quarter

Hourly Weather History & Observations

Time (CDT) Temp. Windchill Dew Point Humidity Pressure Visibility Wind Dir Wind Speed Gust Speed Precip Events Conditions
12:13 AM 69.8 °F - 59.0 °F 68% 29.74 in 10.0 mi WSW 9.2 mph - N/A   Scattered Clouds
12:33 AM 62.6 °F - 57.2 °F 82% 29.75 in 10.0 mi Calm Calm - N/A   Mostly Cloudy
12:53 AM 60.8 °F - 57.2 °F 88% 29.74 in 10.0 mi WNW 10.4 mph - N/A   Scattered Clouds
1:13 AM 60.8 °F - 57.2 °F 88% 29.73 in 10.0 mi NNW 3.5 mph - N/A   Mostly Cloudy
1:34 AM 60.8 °F - 57.2 °F 88% 29.73 in 10.0 mi NNW 4.6 mph - N/A   Overcast
1:53 AM 60.8 °F - 57.2 °F 88% 29.72 in 10.0 mi Calm Calm - N/A   Overcast
2:13 AM 60.8 °F - 57.2 °F 88% 29.71 in 10.0 mi Calm Calm - N/A   Overcast
2:33 AM 60.8 °F - 57.2 °F 88% 29.70 in 10.0 mi Calm Calm - N/A   Mostly Cloudy
2:53 AM 60.8 °F - 57.2 °F 88% 29.68 in 10.0 mi Calm Calm - N/A   Overcast
3:13 AM 60.8 °F - 57.2 °F 88% 29.68 in 10.0 mi Calm Calm - N/A   Overcast
3:33 AM 60.8 °F - 57.2 °F 88% 29.66 in 10.0 mi Calm Calm - N/A   Overcast
3:53 AM 60.8 °F - 57.2 °F 88% 29.64 in 10.0 mi ESE 3.5 mph - N/A   Overcast
4:13 AM 62.6 °F - 59.0 °F 88% 29.63 in 10.0 mi SE 8.1 mph - N/A   Mostly Cloudy
4:33 AM 66.2 °F - 59.0 °F 78% 29.63 in 10.0 mi SSE 9.2 mph - N/A   Mostly Cloudy
4:53 AM 66.2 °F - 59.0 °F 78% 29.63 in 10.0 mi SSE 10.4 mph - N/A   Mostly Cloudy
5:13 AM 66.2 °F - 59.0 °F 78% 29.62 in 10.0 mi SSE 11.5 mph 18.4 mph N/A   Overcast
5:33 AM 66.2 °F - 59.0 °F 78% 29.61 in 10.0 mi SE 10.4 mph 16.1 mph N/A   Overcast
5:54 AM 66.2 °F - 59.0 °F 78% 29.61 in 10.0 mi SSE 11.5 mph 19.6 mph N/A   Overcast
6:13 AM 66.2 °F - 59.0 °F 78% 29.60 in 10.0 mi SSE 12.7 mph 17.3 mph N/A   Overcast
6:33 AM 66.2 °F - 57.2 °F 73% 29.59 in 10.0 mi SSE 11.5 mph 16.1 mph N/A   Overcast
6:53 AM 64.4 °F - 59.0 °F 83% 29.59 in 10.0 mi SSE 12.7 mph 19.6 mph N/A Rain Light Rain
7:13 AM 62.6 °F - 60.8 °F 94% 29.58 in 10.0 mi SSE 11.5 mph 18.4 mph 0.03 in Rain Rain
7:33 AM 62.6 °F - 60.8 °F 94% 29.58 in 10.0 mi South 11.5 mph - 0.06 in Rain Light Rain
7:54 AM 62.6 °F - 60.8 °F 94% 29.58 in 10.0 mi SSE 12.7 mph 17.3 mph 0.08 in Rain Light Rain
8:13 AM 62.6 °F - 60.8 °F 94% 29.57 in 7.0 mi SSE 12.7 mph 17.3 mph 0.03 in Rain Light Rain
8:33 AM 62.6 °F - 60.8 °F 94% 29.57 in 7.0 mi South 11.5 mph 16.1 mph 0.07 in Rain Light Rain
8:54 AM 60.8 °F - 59.0 °F 94% 29.58 in 7.0 mi SW 16.1 mph 23.0 mph 0.17 in Rain Heavy Rain
9:13 AM 55.4 °F - 53.6 °F 94% 29.59 in 10.0 mi West 13.8 mph - 0.05 in Rain Light Rain
9:33 AM 53.6 °F - 53.6 °F 100% 29.61 in 5.0 mi West 16.1 mph - 0.12 in Rain Rain
9:53 AM 53.6 °F - 51.8 °F 94% 29.60 in 7.0 mi West 11.5 mph 18.4 mph 0.14 in Rain Rain
10:13 AM 51.8 °F - 51.8 °F 100% 29.62 in 10.0 mi West 10.4 mph - 0.03 in Rain Light Rain
10:34 AM 51.8 °F - 50.0 °F 94% 29.62 in 10.0 mi West 10.4 mph - 0.05 in Rain Light Rain
10:53 AM 51.8 °F - 48.2 °F 88% 29.63 in 10.0 mi West 15.0 mph 21.9 mph 0.05 in   Overcast
11:13 AM 50.0 °F - 48.2 °F 94% 29.65 in 10.0 mi West 15.0 mph 21.9 mph 0.02 in Rain Light Rain
11:34 AM 51.8 °F - 48.2 °F 88% 29.65 in 10.0 mi West 12.7 mph 18.4 mph 0.06 in Rain Light Rain
11:53 AM 51.8 °F - 48.2 °F 88% 29.67 in 10.0 mi West 15.0 mph 21.9 mph 0.06 in   Overcast
12:13 PM 51.8 °F - 48.2 °F 88% 29.67 in 7.0 mi West 12.7 mph 19.6 mph N/A Rain Rain
12:33 PM 53.6 °F - 50.0 °F 88% 29.67 in 10.0 mi West 18.4 mph 24.2 mph N/A   Overcast
12:53 PM 53.6 °F - 48.2 °F 82% 29.69 in 10.0 mi West 13.8 mph 20.7 mph N/A   Mostly Cloudy
1:13 PM 53.6 °F - 48.2 °F 82% 29.69 in 10.0 mi West 15.0 mph 21.9 mph N/A   Overcast
1:33 PM 53.6 °F - 48.2 °F 82% 29.70 in 10.0 mi West 13.8 mph 23.0 mph N/A Rain Light Rain
1:53 PM 53.6 °F - 48.2 °F 82% 29.70 in 10.0 mi West 11.5 mph 18.4 mph N/A   Overcast
2:13 PM 55.4 °F - 48.2 °F 77% 29.71 in 10.0 mi WNW 12.7 mph 18.4 mph N/A   Overcast
2:33 PM 53.6 °F - 46.4 °F 77% 29.72 in 10.0 mi West 18.4 mph 29.9 mph N/A Rain Rain
2:53 PM 53.6 °F - 46.4 °F 77% 29.73 in 10.0 mi West 17.3 mph 20.7 mph N/A   Overcast
3:14 PM 53.6 °F - 46.4 °F 77% 29.74 in 10.0 mi West 16.1 mph - N/A   Overcast
3:33 PM 53.6 °F - 46.4 °F 77% 29.75 in 10.0 mi West 16.1 mph 23.0 mph N/A Rain Rain
3:53 PM 55.4 °F - 46.4 °F 72% 29.76 in 10.0 mi WSW 19.6 mph 25.3 mph N/A   Overcast
4:14 PM 53.6 °F - 44.6 °F 72% 29.76 in 10.0 mi West 15.0 mph 24.2 mph N/A   Overcast
4:33 PM 53.6 °F - 44.6 °F 72% 29.77 in 10.0 mi West 15.0 mph 23.0 mph N/A   Overcast
4:53 PM 53.6 °F - 44.6 °F 72% 29.77 in 10.0 mi West 12.7 mph 21.9 mph N/A   Overcast
5:14 PM 53.6 °F - 44.6 °F 72% 29.78 in 10.0 mi West 10.4 mph 24.2 mph N/A   Scattered Clouds
5:33 PM 53.6 °F - 42.8 °F 67% 29.79 in 10.0 mi WNW 15.0 mph 23.0 mph N/A   Scattered Clouds
5:53 PM 53.6 °F - 42.8 °F 67% 29.82 in 10.0 mi WNW 13.8 mph 20.7 mph N/A   Scattered Clouds
6:13 PM 53.6 °F - 42.8 °F 67% 29.83 in 10.0 mi WNW 11.5 mph - N/A   Scattered Clouds
6:33 PM 51.8 °F - 42.8 °F 71% 29.84 in 10.0 mi WNW 9.2 mph - N/A   Clear
6:53 PM 51.8 °F - 42.8 °F 71% 29.85 in 10.0 mi WNW 4.6 mph - N/A   Clear
7:13 PM 48.2 °F - 42.8 °F 82% 29.86 in 10.0 mi Calm Calm - N/A   Clear
7:33 PM 48.2 °F - 42.8 °F 82% 29.85 in 10.0 mi Calm Calm - N/A   Clear
7:53 PM 44.6 °F - 42.8 °F 93% 29.86 in 10.0 mi Calm Calm - N/A   Clear
8:13 PM 46.4 °F 45.2 °F 42.8 °F 87% 29.86 in 10.0 mi South 3.5 mph - N/A   Clear
8:33 PM 46.4 °F 45.2 °F 42.8 °F 87% 29.86 in 10.0 mi South 3.5 mph - N/A   Scattered Clouds
8:53 PM 44.6 °F 42.2 °F 42.8 °F 93% 29.86 in 10.0 mi South 4.6 mph - N/A   Clear
9:13 PM 44.6 °F 43.1 °F 42.8 °F 93% 29.86 in 10.0 mi South 3.5 mph - N/A   Clear
9:33 PM 44.6 °F 42.2 °F 42.8 °F 93% 29.86 in 10.0 mi South 4.6 mph - N/A   Mostly Cloudy
9:53 PM 44.6 °F 40.7 °F 42.8 °F 93% 29.86 in 10.0 mi South 6.9 mph - N/A   Mostly Cloudy
10:13 PM 44.6 °F 41.4 °F 42.8 °F 93% 29.86 in 10.0 mi South 5.8 mph - N/A   Clear
10:33 PM 44.6 °F 40.7 °F 42.8 °F 93% 29.86 in 10.0 mi South 6.9 mph - N/A   Clear
10:53 PM 44.6 °F 41.4 °F 42.8 °F 93% 29.86 in 10.0 mi South 5.8 mph - N/A   Clear
11:13 PM 44.6 °F 40.7 °F 42.8 °F 93% 29.86 in 10.0 mi South 6.9 mph - N/A   Clear
11:33 PM 44.6 °F 40.7 °F 42.8 °F 93% 29.86 in 10.0 mi South 6.9 mph - N/A   Clear
11:53 PM 44.6 °F 40.2 °F 42.8 °F 93% 29.86 in 10.0 mi South 8.1 mph - N/A   Clear